FW0850 Weather Reports


Display with metric or nautical units.
time (UTC)temp
F
wind
direction
speed
MPH
gust
MPH
rain 1hr
in
rain 24hr
in
rain mn
in
humidity
%
barometer
mb
20260503211528 69 248 7.0 13.0 0.00 0.00 0.00 28 1003.9
20260503210023 68 240 8.0 17.0 0.00 0.00 0.00 30 1004.1
20260503204525 68 281 8.0 16.0 0.00 0.00 0.00 29 1004.4
20260503203019 68 316 4.0 12.0 0.00 0.00 0.00 30 1004.4
20260503201527 68 274 5.0 11.0 0.00 0.00 0.00 28 1004.8
20260503200013 67 295 4.0 12.0 0.00 0.00 0.00 29 1004.8
20260503194512 68 266 4.0 15.0 0.00 0.00 0.00 28 1005.0
20260503193009 66 302 5.0 17.0 0.00 0.00 0.00 27 1005.2
20260503191508 66 257 6.0 15.0 0.00 0.00 0.00 25 1005.2
20260503190011 66 352 6.0 15.0 0.00 0.00 0.00 22 1005.4
20260503184503 67 248 3.0 15.0 0.00 0.00 0.00 24 1005.5
20260503183004 66 243 3.0 11.0 0.00 0.00 0.00 24 1005.6
20260503181623 65 273 3.0 13.0 0.00 0.00 0.00 25 1005.8
20260503180029 64 304 7.0 19.0 0.00 0.00 0.00 24 1006.0
20260503174527 64 265 9.0 16.0 0.00 0.00 0.00 24 1006.1
20260503173041 64 330 7.0 18.0 0.00 0.00 0.00 25 1006.0
20260503171522 64 285 4.0 18.0 0.00 0.00 0.00 26 1006.1
20260503100120 40 170 0.0 0.0 0.00 0.00 0.00 85 1006.4
20260503081516 43 105 0.0 3.0 0.00 0.00 0.00 76 1006.9
20260503071615 46 103 0.0 0.0 0.00 0.00 0.00 70 1007.6
20260503070104 45 103 0.0 0.0 0.00 0.00 0.00 71 1007.8
20260503060104 44 103 0.0 1.0 0.00 0.00 0.00 74 1008.7
20260503054544 43 103 0.0 2.0 0.00 0.00 0.00 75 1008.8
20260503053042 42 329 0.0 0.0 0.00 0.00 0.00 76 1009.0
20260503051532 42 337 0.0 2.0 0.00 0.00 0.00 76 1009.2
20260503050032 42 63 0.0 4.0 0.00 0.00 0.00 76 1009.4
20260503044600 43 71 0.0 2.0 0.00 0.00 0.00 78 1009.4
20260503043027 42 175 1.0 4.0 0.00 0.00 0.00 80 1009.4
20260503041525 42 67 0.0 2.0 0.00 0.00 0.00 80 1009.6
20260503040025 42 130 1.0 2.0 0.00 0.00 0.00 79 1009.9
20260503034524 41 158 0.0 3.0 0.00 0.00 0.00 79 1009.9
20260503033025 41 175 2.0 3.0 0.00 0.00 0.00 78 1010.1
20260503031553 41 139 1.0 3.0 0.00 0.00 0.00 78 1010.2
20260503030104 41 169 2.0 3.0 0.00 0.00 0.00 77 1010.2
20260503024556 42 139 1.0 6.0 0.00 0.00 0.00 74 1010.2
20260503023054 47 98 0.0 3.0 0.00 0.00 0.00 67 1010.0
20260503021548 47 79 1.0 4.0 0.00 0.00 0.00 65 1010.0
20260503020048 47 42 1.0 5.0 0.00 0.00 0.00 64 1009.8
20260503014553 49 301 1.0 3.0 0.00 0.00 0.00 60 1009.9
20260503013045 49 64 2.0 4.0 0.00 0.00 0.00 58 1009.8
20260503011548 47 328 0.0 3.0 0.00 0.00 0.00 62 1009.7
20260503010044 48 11 1.0 4.0 0.00 0.00 0.00 62 1009.6
20260503004543 50 60 3.0 6.0 0.00 0.00 0.00 59 1009.4
20260503003046 50 320 0.0 3.0 0.00 0.00 0.00 57 1009.6
20260503001542 52 44 0.0 4.0 0.00 0.00 0.00 54 1009.7
20260503000046 55 19 1.0 6.0 0.00 0.00 0.00 49 1009.7
20260502234549 63 203 2.0 6.0 0.00 0.00 0.00 42 1009.8
20260502233033 63 167 5.0 6.0 0.00 0.00 0.00 41 1009.8
20260502231533 62 224 7.0 11.0 0.00 0.00 0.00 42 1010.1
20260502230030 63 200 7.0 14.0 0.00 0.00 0.00 42 1010.1
20260502224602 65 179 7.0 18.0 0.00 0.00 0.00 37 1010.3
20260502223104 66 186 8.0 15.0 0.00 0.00 0.00 36 1010.5
20260502221524 65 169 2.0 18.0 0.00 0.00 0.00 37 1010.8
20260502220020 59 205 3.0 9.0 0.00 0.00 0.00 41 1010.9
20260502214517 57 61 1.0 5.0 0.00 0.00 0.00 42 1010.9
20260502213015 58 53 0.0 6.0 0.00 0.00 0.00 41 1011.3